Waarnemingen

Advertentie
Mijn weer
Europlatform, Nederland (6321): temperatuur & dauwpunt: 22.05.2017 06:00:00 - 28.05.2017 06:00:00 (CEST)Europlatform, Nederland (6321): water temperatuur: 22.05.2017 06:00:00 - 28.05.2017 06:00:00 (CEST)Europlatform, Nederland (6321): windsnelheid & windstoten: 22.05.2017 06:00:00 - 28.05.2017 06:00:00 (CEST)Europlatform, Nederland (6321): windrichting: 22.05.2017 06:00:00 - 28.05.2017 06:00:00 (CEST)Europlatform, Nederland (6321): luchtdruk: 22.05.2017 06:00:00 - 28.05.2017 06:00:00 (CEST)Europlatform, Nederland (6321): zicht: 22.05.2017 06:00:00 - 28.05.2017 06:00:00 (CEST)
Datum & Tijd tt [°C] td [°C] tw [°C] ff [km/u] ff [kn] fx [km/u] fx [kn] dd ppp [hPa] vv [km]
28.05.2017 06:00:00 13,8 12,5 13,1 14 8 18 10 ZW 1018,0 19
28.05.2017 05:00:00 13,8 12,6 13,1 18 10 25 14 WZW 1017,6 18
28.05.2017 04:00:00 14,1 12,6 13,1 14 8 25 14 ZW 1017,7 21
28.05.2017 03:00:00 14,3 12,7 13,1 22 12 25 14 ZW 1017,8 20
28.05.2017 02:00:00 14,4 12,7 13,1 22 12 25 14 ZW 1017,7 19
28.05.2017 01:00:00 14,7 12,7 13,1 22 12 29 16 ZZW 1017,8 18
28.05.2017 00:00:00 15,1 12,9 13,1 25 14 29 16 ZW 1017,3 20
27.05.2017 23:00:00 14,6 13,3 13,0 25 14 36 19 ZW 1017,3 17
27.05.2017 22:00:00 14,6 13,1 13,0 32 18 40 21 ZW 1017,1 18
27.05.2017 21:00:00 15,0 12,9 13,0 32 18 40 21 ZW 1016,5 23
27.05.2017 20:00:00 15,9 12,5 13,0 36 19 47 25 ZZW 1016,1 36
27.05.2017 19:00:00 15,8 12,8 13,0 36 19 43 23 ZW 1016,0 26
27.05.2017 18:00:00 15,5 13,1 12,9 36 19 43 23 ZW 1015,9 18
27.05.2017 17:00:00 15,6 13,8 12,9 32 18 40 21 ZW 1015,9 14
27.05.2017 16:00:00 17,6 13,9 12,9 29 16 32 18 ZW 1015,9 17
27.05.2017 15:00:00 18,7 13,6 12,8 4 2 11 6 ZZW 1015,1 15
27.05.2017 14:00:00 18,4 13,5 12,9 7 4 29 16 ZZW 1015,2 17
27.05.2017 13:00:00 17,8 13,5 12,9 22 12 32 18 ZZW 1015,8 21
27.05.2017 12:00:00 18,2 13,5 12,9 29 16 36 19 OZO 1014,8 30
27.05.2017 11:00:00 18,0 13,5 12,9 32 18 36 19 OZO 1014,7 31
27.05.2017 10:00:00 16,6 13,3 12,8 29 16 32 18 OZO 1014,9 21
27.05.2017 09:00:00 16,4 13,4 12,8 32 18 36 19 O 1015,2 18
27.05.2017 08:00:00 16,2 13,1 12,8 32 18 36 19 O 1015,6 25
27.05.2017 07:00:00 16,5 13,3 12,8 32 18 36 19 O 1015,7 28
27.05.2017 06:00:00 16,5 13,0 12,8 29 16 32 18 OZO 1015,9 28
27.05.2017 05:00:00 16,7 13,1 12,8 29 16 32 18 OZO 1016,1 28
27.05.2017 04:00:00 16,6 13,0 12,8 29 16 36 19 O 1016,3 25
27.05.2017 03:00:00 17,1 12,7 12,8 32 18 40 21 O 1016,1 31
27.05.2017 02:00:00 18,0 12,5 12,8 36 19 43 23 O 1016,0 36
27.05.2017 01:00:00 18,0 12,5 12,8 32 18 40 21 O 1016,6 45
27.05.2017 00:00:00 19,2 12,2 12,8 36 19 40 21 O 1016,8 44
26.05.2017 23:00:00 19,3 12,4 12,8 36 19 40 21 O 1016,9 45
26.05.2017 22:00:00 19,1 12,4 12,7 32 18 36 19 ONO 1017,1 47
26.05.2017 21:00:00 17,9 12,4 12,7 29 16 36 19 ONO 1016,9 38
26.05.2017 20:00:00 17,3 12,4 12,8 32 18 36 19 NO 1017,0 38
26.05.2017 19:00:00 16,3 12,4 12,7 25 14 32 18 NO 1017,5 24
26.05.2017 18:00:00 15,1 12,6 12,7 29 16 32 18 NNO 1018,1 16
26.05.2017 17:00:00 14,7 12,7 12,7 25 14 32 18 N 1018,9 12
26.05.2017 16:00:00 15,1 12,8 12,7 29 16 32 18 NNO 1019,5 15
26.05.2017 15:00:00 15,4 12,7 12,7 32 18 36 19 NNO 1020,3 20
26.05.2017 14:00:00 15,2 12,8 12,7 22 12 29 16 NO 1021,0 16
26.05.2017 13:00:00 15,4 12,7 12,7 22 12 25 14 NO 1021,5 18
26.05.2017 12:00:00 15,0 12,8 12,7 18 10 22 12 ONO 1022,0 19
26.05.2017 11:00:00 15,1 13,0 12,7 22 12 25 14 O 1022,3 21
26.05.2017 10:00:00 14,5 12,8 12,7 22 12 25 14 O 1022,5 17
26.05.2017 09:00:00 14,2 12,7 12,7 22 12 25 14 ONO 1022,7 19
26.05.2017 08:00:00 14,2 12,6 12,7 22 12 25 14 ONO 1022,5 21
26.05.2017 07:00:00 14,4 12,6 12,7 25 14 29 16 ONO 1022,2 26
26.05.2017 06:00:00 14,5 12,8 12,7 25 14 29 16 ONO 1022,4 32
26.05.2017 05:00:00 14,7 13,1 12,7 25 14 29 16 ONO 1022,4 31
26.05.2017 04:00:00 14,4 13,1 12,7 25 14 29 16 ONO 1022,3 18
26.05.2017 03:00:00 14,5 12,9 12,7 25 14 29 16 ONO 1022,3 20
26.05.2017 02:00:00 14,6 12,7 12,7 29 16 29 16 NO 1022,6 24
26.05.2017 01:00:00 14,8 12,6 12,7 29 16 29 16 ONO 1023,0 28
26.05.2017 00:00:00 - - 12,7 27 15 - - NO 1023,0 40
25.05.2017 23:00:00 14,5 11,5 12,7 25 14 29 16 NNO 1023,1 43
25.05.2017 22:00:00 14,3 11,2 12,7 29 16 29 16 NNO 1023,3 44
25.05.2017 21:00:00 13,8 11,4 12,6 25 14 29 16 NNO 1023,2 42
25.05.2017 20:00:00 13,8 10,9 12,6 25 14 29 16 NNO 1023,4 46
25.05.2017 19:00:00 13,7 11,0 12,6 18 10 22 12 NNO 1023,9 44
25.05.2017 18:00:00 13,5 11,1 12,6 18 10 - - N 1024,3 48
25.05.2017 17:00:00 13,6 10,9 12,6 18 10 18 10 N 1024,8 43
25.05.2017 16:00:00 13,5 10,7 12,5 14 8 18 10 N 1025,3 45
25.05.2017 15:00:00 13,5 10,7 12,5 14 8 14 8 NO 1025,7 45
25.05.2017 14:00:00 13,4 11,1 12,5 11 6 11 6 NNO 1026,0 40
25.05.2017 13:00:00 13,2 10,9 12,5 7 4 7 4 NO 1026,1 38
25.05.2017 12:00:00 13,0 11,2 12,5 7 4 14 8 ONO 1026,4 28
25.05.2017 11:00:00 12,7 11,9 12,5 11 6 14 8 NO 1026,4 12
25.05.2017 10:00:00 12,7 11,9 12,5 11 6 11 6 NNO 1026,5 11
25.05.2017 09:00:00 12,7 12,0 12,5 11 6 14 8 NNO 1026,4 7
25.05.2017 08:00:00 13,1 12,1 12,5 7 4 - - N 1025,9 6
25.05.2017 07:00:00 12,9 12,1 12,4 11 6 11 6 N 1025,5 4,6
25.05.2017 06:00:00 12,5 12,3 12,4 7 4 11 6 NNW 1025,3 4,1
25.05.2017 05:00:00 12,5 12,2 12,4 11 6 11 6 NNW 1025,5 4,2
25.05.2017 04:00:00 12,5 12,2 12,4 7 4 11 6 NNW 1025,6 5
25.05.2017 03:00:00 12,5 12,1 12,4 11 6 11 6 NNW 1025,6 4,9
25.05.2017 02:00:00 12,5 12,1 12,4 11 6 11 6 NW 1026,0 4,6
25.05.2017 01:00:00 12,8 12,1 12,4 7 4 7 4 NNW 1025,9 7
25.05.2017 00:00:00 13,0 12,1 12,4 7 4 7 4 NNW 1026,0 8
24.05.2017 23:00:00 12,9 12,2 12,4 7 4 11 6 NW 1026,0 8
24.05.2017 22:00:00 13,1 12,2 12,4 11 6 14 8 NNW 1026,0 8
24.05.2017 21:00:00 13,1 12,3 12,4 11 6 14 8 NNW 1025,9 7
24.05.2017 20:00:00 13,4 12,3 12,4 14 8 22 12 NNW 1025,9 8
24.05.2017 19:00:00 13,7 12,2 12,4 14 8 22 12 NNW 1025,8 9
24.05.2017 18:00:00 14,7 12,1 12,4 14 8 18 10 NW 1025,8 10
24.05.2017 17:00:00 14,7 12,2 12,4 14 8 22 12 NW 1025,9 11
24.05.2017 16:00:00 14,7 12,1 12,3 22 12 25 14 NW 1025,9 12
24.05.2017 15:00:00 14,8 12,0 12,4 22 12 25 14 WNW 1025,8 14
24.05.2017 14:00:00 14,5 11,6 12,4 22 12 - - WNW 1025,7 15
24.05.2017 13:00:00 14,3 11,2 12,3 18 10 22 12 W 1025,7 18
24.05.2017 12:00:00 14,4 11,1 12,3 18 10 18 10 W 1025,6 22
24.05.2017 11:00:00 14,1 10,8 12,4 18 10 - - WNW 1025,4 27
24.05.2017 10:00:00 14,3 10,7 12,3 18 10 - - W 1025,0 29
24.05.2017 09:00:00 - - - - - - - - - -
24.05.2017 08:00:00 - - - - - - - - - -
24.05.2017 07:00:00 - - - - - - - - - -
24.05.2017 06:00:00 - - - - - - - - - -
24.05.2017 05:00:00 - - - - - - - - - -
24.05.2017 04:00:00 - - - - - - - - - -
24.05.2017 03:00:00 - - - - - - - - - -
24.05.2017 02:00:00 - - - - - - - - - -
24.05.2017 01:00:00 - - - - - - - - - -
24.05.2017 00:00:00 - - - - - - - - - -
23.05.2017 23:00:00 - - - - - - - - - -
23.05.2017 22:00:00 - - - - - - - - - -
23.05.2017 21:00:00 13,3 12,0 12,3 14 8 18 10 ZZO 1022,5 18
23.05.2017 20:00:00 13,3 11,9 12,3 11 6 14 8 ZZO 1022,5 17
23.05.2017 19:00:00 13,4 11,9 12,3 4 2 11 6 ZZO 1022,7 15
23.05.2017 18:00:00 13,5 11,7 12,3 7 4 7 4 ZZW 1022,5 17
23.05.2017 17:00:00 13,2 11,7 12,2 7 4 14 8 ZW 1022,6 18
23.05.2017 16:00:00 13,4 11,3 12,2 11 6 - - WZW 1022,2 19
23.05.2017 15:00:00 - - - - - - - - - -
23.05.2017 14:00:00 14,2 11,0 12,2 18 10 25 14 W 1021,6 19
23.05.2017 13:00:00 14,2 11,1 12,2 18 10 22 12 W 1021,2 19
23.05.2017 12:00:00 13,8 11,2 12,2 18 10 29 16 W 1020,4 17
23.05.2017 11:00:00 - - - - - - - - - -
23.05.2017 10:00:00 13,3 11,3 12,2 25 14 32 18 WNW 1018,7 13
23.05.2017 09:00:00 13,7 10,7 12,1 29 16 36 19 WNW 1017,7 23
23.05.2017 08:00:00 13,7 10,9 12,2 29 16 32 18 NW 1016,7 19
23.05.2017 07:00:00 13,8 11,2 12,1 29 16 36 19 W 1016,1 13
23.05.2017 06:00:00 13,9 10,8 12,1 25 14 29 16 WZW 1015,5 15
23.05.2017 05:00:00 14,8 10,0 12,1 22 12 32 18 ZW 1015,1 17
23.05.2017 04:00:00 15,8 9,8 12,1 25 14 29 16 ZW 1015,1 22
23.05.2017 03:00:00 17,3 10,0 12,1 22 12 25 14 ZZW 1014,9 26
23.05.2017 02:00:00 17,2 9,0 12,1 14 8 18 10 ZZW 1014,7 24
23.05.2017 01:00:00 15,8 10,7 12,1 11 6 22 12 ZO 1014,9 26
23.05.2017 00:00:00 16,2 10,5 12,1 18 10 22 12 O 1014,9 30
22.05.2017 23:00:00 15,9 10,8 12,1 22 12 22 12 O 1015,2 36
22.05.2017 22:00:00 15,5 10,6 12,1 18 10 25 14 ONO 1015,8 34
22.05.2017 21:00:00 15,8 9,7 12,1 22 12 25 14 ONO 1015,2 30
22.05.2017 20:00:00 15,5 9,6 12,1 25 14 25 14 NO 1015,2 23
22.05.2017 19:00:00 16,4 8,9 12,1 22 12 25 14 NO 1015,5 28
22.05.2017 18:00:00 15,5 9,9 12,1 22 12 22 12 NO 1016,0 19
22.05.2017 17:00:00 15,7 9,7 12,1 18 10 25 14 NNO 1016,4 19
22.05.2017 16:00:00 17,3 7,7 12,0 14 8 22 12 NO 1017,0 20
22.05.2017 15:00:00 15,6 10,0 12,0 11 6 14 8 NO 1017,6 15
22.05.2017 14:00:00 15,9 10,3 12,0 11 6 14 8 O 1018,0 16
22.05.2017 13:00:00 15,1 10,9 12,0 11 6 14 8 O 1018,3 17
22.05.2017 12:00:00 14,4 10,9 12,0 14 8 14 8 O 1018,8 14
22.05.2017 11:00:00 13,8 10,9 12,1 14 8 18 10 O 1019,1 13
22.05.2017 10:00:00 13,5 10,6 12,0 18 10 22 12 O 1019,4 16
22.05.2017 09:00:00 13,2 10,2 12,0 18 10 22 12 O 1019,5 18
22.05.2017 08:00:00 13,3 10,3 12,1 22 12 25 14 O 1019,8 21
22.05.2017 07:00:00 13,2 10,5 12,0 22 12 25 14 ONO 1019,7 21
22.05.2017 06:00:00 13,0 10,9 12,1 22 12 25 14 ONO 1019,9 18

tt = temperatuur
td = dauwpunt
tw = water temperatuur
ff = windsnelheid
fx = windstoten
dd = windrichting
ppp = luchtdruk
vv = zicht

Weerstations in de omgeving